Tracking 27401 objects as of 3-Jun-2023
HD Live streaming from Space Station
objects crossing your sky now

FLOCK 3S 3

Track FLOCK 3S 3 now!
10-day predictions
FLOCK 3S 3 is classified as:


NORAD ID: 43788
Int'l Code: 2018-099AG
Perigee: 560.2 km
Apogee: 578.3 km
Inclination: 97.6 °
Period: 95.9 minutes
Semi major axis: 6940 km
RCS: Unknown
Launch date: December 3, 2018
Source: United States (US)
Launch site: AIR FORCE WESTERN TEST RANGE (AFWTR)
Your satellite tracking list
Your tracking list is empty




NASA's NSSDC Master Catalog

Two Line Element Set (TLE):
1 43788U 18099AG  23153.71608262  .00007188  00000-0  55840-3 0  9992
2 43788  97.5940 217.9530 0013021 175.3394 184.7954 15.01551041245532
Source of the keplerian elements: AFSPC